GW0118 Weather Reports


time (UTC)temp
C
wind
direction
speed
KPH
gust
KPH
rain 1hr
cm
rain 24hr
cm
rain mn
cm
humidity
%
barometer
mb
20260510183104 10 323 11.3 27.4 0.00 0.79 0.76 80 1012.3
20260510181606 10 203 12.9 27.4 0.00 0.79 0.76 80 1012.3
20260510180104 10 202 9.7 22.5 0.00 0.79 0.76 79 1012.2
20260510174607 11 252 12.9 29.0 0.00 0.99 0.76 78 1012.2
20260510173104 11 222 12.9 29.0 0.00 0.99 0.76 77 1012.2
20260510171558 11 246 11.3 29.0 0.00 0.99 0.76 77 1012.1
20260510170115 11 266 11.3 25.7 0.00 0.99 0.76 77 1012.0
20260510164623 11 221 11.3 35.4 0.00 0.99 0.76 78 1012.1
20260510163105 11 206 17.7 32.2 0.00 0.99 0.76 80 1012.2
20260510161600 10 264 17.7 27.4 0.00 0.99 0.76 82 1012.3
20260510160132 10 98 8.0 24.1 0.00 0.99 0.76 83 1012.3
20260510154607 10 252 12.9 29.0 0.00 1.04 0.76 81 1012.4
20260510153059 10 205 14.5 29.0 0.00 1.04 0.76 82 1012.3
20260510151603 10 218 12.9 30.6 0.00 1.04 0.76 80 1012.3
20260510144622 11 186 14.5 27.4 0.00 1.22 0.76 79 1012.3
20260510143100 11 141 8.0 17.7 0.00 1.22 0.76 80 1012.2
20260510141559 10 276 11.3 24.1 0.00 1.22 0.76 82 1012.3
20260510140101 10 224 11.3 29.0 0.00 1.22 0.76 85 1012.5
20260510134605 9 230 16.1 37.0 0.00 1.22 0.76 89 1012.7
20260510133100 9 152 14.5 25.7 0.00 1.19 0.74 88 1012.9
20260510131559 8 200 19.3 35.4 0.15 1.19 0.74 89 1013.0
20260510130100 8 236 19.3 41.8 0.41 1.19 0.74 90 1012.9
20260510124612 8 225 14.5 30.6 0.41 1.19 0.74 92 1013.2
20260510123100 7 218 16.1 41.8 0.38 1.17 0.74 91 1013.2
20260510121559 8 262 25.7 46.7 0.25 1.02 0.58 86 1013.0
20260510120057 11 264 12.9 25.7 0.00 0.76 0.33 78 1011.9
20260510114558 12 141 9.7 27.4 0.00 0.76 0.33 77 1012.1
20260510113104 11 216 11.3 22.5 0.00 0.76 0.33 81 1012.2
20260510111600 11 199 12.9 27.4 0.00 0.76 0.33 82 1012.4
20260510110100 10 231 6.4 19.3 0.00 0.76 0.33 86 1012.5
20260510104605 10 347 16.1 29.0 0.00 0.76 0.33 84 1012.8
20260510103059 11 149 14.5 25.7 0.00 0.74 0.30 81 1012.7
20260510101601 11 251 8.0 20.9 0.00 0.74 0.30 83 1012.8
20260510100058 10 226 11.3 27.4 0.00 0.74 0.30 83 1012.8
20260510094613 10 235 3.2 11.3 0.03 0.74 0.30 87 1012.9
20260510093119 10 250 4.8 20.9 0.08 0.74 0.30 88 1013.1
20260510091601 9 229 4.8 9.7 0.10 0.74 0.30 89 1013.1
20260510090059 8 205 8.0 16.1 0.13 0.74 0.30 89 1013.2
20260510084603 8 221 9.7 20.9 0.08 0.71 0.28 88 1013.4
20260510083103 8 262 9.7 24.1 0.03 0.64 0.20 88 1013.4
20260510081559 9 246 9.7 20.9 0.00 0.64 0.18 86 1013.5
20260510080100 9 230 12.9 24.1 0.00 0.61 0.18 86 1013.3
20260510074600 9 257 8.0 20.9 0.00 0.61 0.18 87 1013.2
20260510073100 9 210 9.7 24.1 0.00 0.61 0.18 88 1013.1
20260510071558 8 173 8.0 22.5 0.00 0.61 0.18 90 1013.1
20260510070058 8 237 9.7 20.9 0.00 0.61 0.18 90 1012.9
20260510064557 8 169 9.7 19.3 0.00 0.61 0.18 92 1012.9
20260510063059 7 226 9.7 20.9 0.00 0.61 0.18 92 1012.7
20260510061557 7 217 8.0 19.3 0.00 0.61 0.18 93 1012.7
20260510054559 7 224 6.4 27.4 0.00 0.61 0.18 93 1012.7
20260510053105 7 224 6.4 14.5 0.00 0.61 0.18 93 1012.4
20260510051558 7 232 6.4 16.1 0.00 0.61 0.18 93 1012.5
20260510050058 7 264 8.0 16.1 0.00 0.61 0.18 93 1012.4
20260510044557 7 209 3.2 19.3 0.00 0.61 0.18 93 1012.5
20260510043105 7 212 4.8 14.5 0.00 0.61 0.18 92 1012.6
20260510041600 7 194 4.8 17.7 0.00 0.61 0.18 92 1012.4
20260510040101 7 232 12.9 25.7 0.00 0.61 0.18 92 1012.5
20260510034557 7 247 17.7 30.6 0.00 0.61 0.18 92 1012.5
20260510033112 7 248 16.1 24.1 0.00 0.61 0.18 92 1012.6
20260510031558 7 214 12.9 25.7 0.00 0.61 0.18 92 1012.8
20260510030104 7 162 11.3 27.4 0.00 0.61 0.18 92 1012.8
20260510024610 7 312 6.4 22.5 0.00 0.61 0.18 92 1012.8
20260510023058 7 260 8.0 17.7 0.00 0.61 0.18 92 1012.7
20260510020100 7 239 11.3 19.3 0.00 0.61 0.18 92 1012.9
20260510014557 7 229 6.4 12.9 0.00 0.61 0.18 92 1013.1
20260510013057 7 264 11.3 25.7 0.00 0.61 0.18 92 1013.3
20260510011557 7 233 12.9 24.1 0.00 0.61 0.18 92 1013.4
20260510010109 7 263 8.0 20.9 0.00 0.61 0.18 92 1013.6
20260510004602 7 250 11.3 22.5 0.00 0.61 0.18 91 1013.6
20260510003103 7 224 6.4 16.1 0.00 0.61 0.18 92 1013.8
20260510001600 7 266 3.2 11.3 0.00 0.61 0.18 92 1013.8
20260509234601 7 229 3.2 17.7 0.00 0.61 0.18 92 1013.8
20260509233101 7 240 9.7 19.3 0.03 0.58 0.15 92 1013.5
20260509231601 7 257 9.7 29.0 0.15 0.58 0.15 92 1013.7
20260509230059 7 256 11.3 25.7 0.15 0.58 0.15 92 1013.6
20260509224600 8 221 14.5 40.2 0.15 0.58 0.15 92 1013.5
20260509223104 8 293 29.0 43.5 0.10 0.56 0.10 87 1013.6
20260509221603 10 172 8.0 25.7 0.00 0.43 0.00 88 1012.7
20260509214628 10 203 11.3 22.5 0.00 0.43 0.43 89 1013.0
20260509213103 10 246 9.7 22.5 0.00 0.43 0.43 89 1013.0
20260509211601 9 189 8.0 17.7 0.00 0.43 0.43 90 1012.8
20260509210107 9 190 1.6 4.8 0.00 0.43 0.43 91 1012.7
20260509204558 9 0 0.0 4.8 0.00 0.43 0.43 90 1012.6
20260509203115 10 0 0.0 1.6 0.00 0.43 0.43 90 1012.4
20260509201559 10 0 0.0 3.2 0.00 0.43 0.43 91 1012.3
20260509200100 10 0 0.0 3.2 0.00 0.43 0.43 91 1012.1
20260509194558 10 0 0.0 4.8 0.00 0.43 0.43 91 1012.0
20260509193111 10 135 0.0 1.6 0.00 0.43 0.43 90 1011.9
20260509191608 10 0 0.0 4.8 0.00 0.43 0.43 89 1011.8
20260509190100 10 150 0.0 3.2 0.00 0.43 0.43 87 1011.7
20260509184601 10 233 3.2 8.0 0.08 0.43 0.43 85 1011.7